Sparta, WI

9:11 PM CDT on July 22, 2017 (GMT -0500)
Sparta-Fort McCoy

Weather History for KCMY - October, 2014

Change the Weather History Date:

Thursday, October 2, 2014

  Actual Average Record
Temperature  
Mean Temperature 58 °F -  
Max Temperature 70 °F 68 °F 90 °F (1976)
Min Temperature 46 °F 40 °F 15 °F (2003)
Degree Days  
Heating Degree Days 7    
Growing Degree Days 8 (Base 50)    
Moisture  
Dew Point 57 °F    
Average Humidity 90    
Maximum Humidity 100    
Minimum Humidity 64    
Precipitation  
Precipitation 1.16 in - - ()
Sea Level Pressure  
Sea Level Pressure 29.77 in    
Wind  
Wind Speed 1 mph (NNW)    
Max Wind Speed 16 mph    
Max Gust Speed 26 mph    
Visibility 7 miles    
Events Fog , Rain    
Averages and records for this station are not official NWS values.
T = Trace of Precipitation, MM = Missing Value Source: NWS Daily Summary

Daily Weather History Graph

Daily Weather History Graph

Search for Another Location

Airport or City:

Trip Planner

Search our weather history database for the weather conditions in past years. The results will help you decide how hot, cold, wet, or windy it might be!

Date:

Astronomy

Oct. 02, 2014 Rise Set
Actual Time 7:01 AM CDT 6:41 PM CDT
Civil Twilight 6:33 AM CDT 7:10 PM CDT
Nautical Twilight 5:59 AM CDT 7:44 PM CDT
Astronomical Twilight 5:25 AM CDT 8:17 PM CDT
Moon 2:59 PM CDT (10/2) 12:07 AM CDT (10/2)
Length of Visible Light 12h 37m
Length of Day
11h 40m
First Quarter, 60% of the Moon is Illuminated
Oct 2
First Quarter
Oct 8
Full
Oct 15
Last Quarter
Oct 23
New
Oct 30
First Quarter

Hourly Weather History & Observations

Time (CDT) Temp. Dew Point Humidity Pressure Visibility Wind Dir Wind Speed Gust Speed Precip Events Conditions
12:10 AM 59.9 °F 56.5 °F 88% 29.84 in 10.0 mi Calm Calm - N/A   Overcast
12:35 AM 60.8 °F 57.2 °F 88% 29.85 in 10.0 mi Calm Calm - N/A   Overcast
12:55 AM 59.5 °F 56.7 °F 90% 29.85 in 10.0 mi Calm Calm - N/A   Overcast
1:10 AM 59.9 °F 56.3 °F 88% 29.85 in 10.0 mi Calm Calm - N/A   Overcast
1:35 AM 60.8 °F 57.2 °F 88% 29.85 in 10.0 mi Calm Calm - N/A   Overcast
1:40 AM 59.5 °F 56.8 °F 91% 29.85 in 10.0 mi Calm Calm - N/A   Overcast
1:50 AM 59.9 °F 57.2 °F 91% 29.85 in 10.0 mi Calm Calm - N/A Rain Light Rain
2:10 AM 46.6 °F 42.6 °F 86% 30.00 in 10.0 mi SE 4.6 mph - N/A   Mostly Cloudy
2:15 AM 59.0 °F 57.2 °F 94% 29.85 in 10.0 mi Calm Calm - N/A   Overcast
2:35 AM 59.0 °F 57.2 °F 94% 29.85 in 10.0 mi South 3.5 mph - N/A   Overcast
2:55 AM 59.0 °F 57.6 °F 95% 29.83 in 10.0 mi Calm Calm - N/A   Overcast
3:15 AM 57.2 °F 57.2 °F 100% 29.82 in 7.0 mi Calm Calm - N/A   Scattered Clouds
3:35 AM 55.6 °F 54.5 °F 96% 29.82 in 0.2 mi Calm Calm - N/A Fog Fog
4:15 AM 53.6 °F 53.6 °F 100% 29.83 in 0.2 mi Calm Calm - N/A Fog Fog
4:35 AM 51.8 °F 51.8 °F 100% 29.83 in 0.5 mi Calm Calm - N/A Fog Fog
4:55 AM 53.6 °F 53.6 °F 100% 29.84 in 4.0 mi Calm Calm - N/A   Mostly Cloudy
5:10 AM 53.6 °F 52.9 °F 97% 29.83 in 5.0 mi Calm Calm - N/A   Overcast
5:35 AM 54.5 °F 54.0 °F 98% 29.83 in 7.0 mi Calm Calm - N/A   Overcast
5:55 AM 55.4 °F 55.4 °F 100% 29.84 in 7.0 mi Calm Calm - N/A   Overcast
6:15 AM 55.4 °F 55.4 °F 100% 29.84 in 5.0 mi Calm Calm - N/A   Overcast
6:35 AM 55.4 °F 55.4 °F 100% 29.84 in 7.0 mi Calm Calm - N/A   Overcast
6:55 AM 55.4 °F 54.7 °F 97% 29.85 in 7.0 mi Calm Calm - N/A   Mostly Cloudy
7:15 AM 54.5 °F 54.0 °F 98% 29.85 in 3.0 mi Calm Calm - N/A   Overcast
7:35 AM 54.9 °F 54.5 °F 99% 29.85 in 4.0 mi Calm Calm - N/A   Overcast
7:55 AM 55.8 °F 55.4 °F 99% 29.85 in 4.0 mi Calm Calm - N/A   Overcast
8:15 AM 56.8 °F 56.3 °F 98% 29.85 in 5.0 mi Calm Calm - N/A   Overcast
8:35 AM 57.2 °F 56.5 °F 97% 29.85 in 5.0 mi Calm Calm - N/A   Overcast
9:15 AM 59.0 °F 57.2 °F 94% 29.85 in 5.0 mi Calm Calm - N/A   Overcast
9:20 AM 59.0 °F 57.4 °F 94% 29.85 in 5.0 mi Calm Calm - N/A   Overcast
9:35 AM 59.4 °F 57.6 °F 94% 29.85 in 7.0 mi Calm Calm - N/A   Overcast
9:50 AM 60.3 °F 58.3 °F 93% 29.85 in 7.0 mi Calm Calm - N/A   Overcast
10:10 AM 61.9 °F 59.0 °F 90% 29.84 in 7.0 mi Calm Calm - N/A   Overcast
10:56 AM 64.4 °F 60.8 °F 88% 29.83 in 7.0 mi Calm Calm - N/A   Overcast
11:10 AM 65.7 °F 58.8 °F 79% 29.82 in 7.0 mi Calm Calm - N/A   Mostly Cloudy
11:15 AM 66.2 °F 59.0 °F 78% 29.82 in 7.0 mi Calm Calm - N/A   Scattered Clouds
11:35 AM 67.1 °F 59.5 °F 77% 29.81 in 10.0 mi Calm Calm - N/A   Mostly Cloudy
11:55 AM 68.0 °F 59.0 °F 73% 29.80 in 10.0 mi Calm Calm - N/A   Mostly Cloudy
12:10 PM 68.9 °F 58.8 °F 70% 29.80 in 10.0 mi Calm Calm - N/A   Scattered Clouds
12:55 PM 68.5 °F 58.5 °F 70% 29.78 in 10.0 mi Calm Calm - N/A   Overcast
1:35 PM 69.3 °F 58.6 °F 69% 29.76 in 10.0 mi Calm Calm - N/A   Mostly Cloudy
1:55 PM 70.0 °F 58.5 °F 67% 29.75 in 10.0 mi Calm Calm - N/A   Overcast
2:15 PM 69.8 °F 57.2 °F 64% 29.75 in 10.0 mi East 3.5 mph - N/A   Overcast
2:20 PM 69.1 °F 58.3 °F 68% 29.75 in 10.0 mi ESE 4.6 mph - N/A   Overcast
2:35 PM 69.4 °F 58.5 °F 68% 29.75 in 10.0 mi East 3.5 mph - N/A   Overcast
2:55 PM 68.9 °F 58.8 °F 70% 29.74 in 10.0 mi ESE 5.8 mph - N/A   Overcast
3:10 PM 68.0 °F 60.3 °F 76% 29.73 in 10.0 mi East 3.5 mph - N/A Rain Light Rain
3:55 PM 67.8 °F 61.5 °F 80% 29.70 in 10.0 mi Calm Calm - N/A   Overcast
4:15 PM 66.4 °F 63.3 °F 90% 29.69 in 7.0 mi West 3.5 mph - N/A   Overcast
4:35 PM 66.2 °F 63.0 °F 89% 29.67 in 10.0 mi NNW 5.8 mph - N/A   Overcast
4:55 PM 66.2 °F 62.4 °F 88% 29.67 in 10.0 mi East 3.5 mph - N/A Rain Light Rain
5:15 PM 65.5 °F 62.6 °F 90% 29.67 in 4.0 mi East 3.5 mph - 0.06 in Rain Heavy Rain
5:55 PM 64.0 °F 62.6 °F 95% 29.66 in 2.5 mi Calm Calm - 0.41 in Rain Heavy Rain
6:15 PM 63.7 °F 62.6 °F 96% 29.66 in 1.0 mi Calm Calm - 0.26 in Rain Heavy Rain
6:35 PM 63.5 °F 62.6 °F 97% 29.65 in 2.5 mi Calm Calm - 0.44 in Rain Rain
7:30 PM 63.9 °F 62.6 °F 96% 29.62 in 5.0 mi SSW 3.5 mph - 0.01 in Rain Rain
7:55 PM 63.7 °F 62.6 °F 96% 29.61 in 4.0 mi Calm Calm - 0.03 in Rain Rain
8:15 PM 63.5 °F 62.2 °F 96% 29.61 in 4.0 mi Calm Calm - N/A Rain Rain
8:35 PM 61.7 °F 60.3 °F 95% 29.61 in 7.0 mi NW 11.5 mph - 0.02 in Rain Rain
8:55 PM 60.3 °F 58.5 °F 94% 29.61 in 10.0 mi NNW 11.5 mph 21.9 mph 0.03 in Rain Light Rain
9:15 PM 59.9 °F 58.5 °F 95% 29.64 in 2.5 mi West 5.8 mph - 0.17 in Rain Heavy Rain
9:35 PM 59.9 °F 58.5 °F 95% 29.64 in 7.0 mi WNW 11.5 mph 17.3 mph 0.24 in Rain Rain
9:55 PM 58.6 °F 56.7 °F 93% 29.65 in 10.0 mi NW 16.1 mph 21.9 mph 0.25 in Rain Light Rain
10:15 PM 56.7 °F 54.0 °F 91% 29.66 in 10.0 mi NW 15.0 mph 26.5 mph N/A   Light Drizzle
10:40 PM 56.3 °F 53.1 °F 89% 29.66 in 10.0 mi NW 9.2 mph 24.2 mph N/A   Overcast
10:55 PM 55.8 °F 52.9 °F 90% 29.67 in 10.0 mi WSW 4.6 mph - N/A   Overcast
11:15 PM 55.4 °F 52.9 °F 91% 29.67 in 7.0 mi West 3.5 mph - N/A Rain Light Rain
11:35 PM 55.0 °F 52.7 °F 92% 29.65 in 10.0 mi North 4.6 mph - N/A Rain Light Rain
11:55 PM 55.0 °F 52.7 °F 92% 29.64 in 10.0 mi North 4.6 mph - N/A Rain Light Rain